When you browse on this site, cookies collect data to enhance your experience and personalize the content and advertising you see.
Visit our Privacy Policy to learn more. By continuing to use the site, you agree to this use of cookies and data.
  • In United Kingdom
  • List of Countries
  • For 7 days
  • Water Temperature
  • Satellite Maps
  • Weather Map
  • Weather Widgets
  • user-avatar
    Login

    Hourly Weather Qorateri

    Today, 23 March, Saturday

    Time Temperature Precipitation Wind Pressure Humidity
    00:00 +16°C° 0 mm 2 mps 727 mmHg 39%
    01:00 +16°C° 0 mm 2 mps 727 mmHg 39%
    02:00 +15°C° 0 mm 2 mps 727 mmHg 39%
    03:00 +15°C° 0 mm 2 mps 727 mmHg 39%
    04:00 +14°C° 0 mm 2 mps 727 mmHg 39%
    05:00 +13°C° 0 mm 3 mps 726 mmHg 37%
    06:00 +15°C° 0 mm 2 mps 726 mmHg 36%
    07:00 +15°C° 0 mm 2 mps 726 mmHg 35%
    08:00 +15°C° 0 mm 1 mps 726 mmHg 35%
    09:00 +18°C° 0 mm 1 mps 726 mmHg 32%
    10:00 +19°C° 0 mm 1 mps 726 mmHg 28%
    11:00 +21°C° 0 mm 1 mps 725 mmHg 25%
    12:00 +22°C° 0 mm 1 mps 725 mmHg 23%
    13:00 +23°C° 0 mm 1 mps 725 mmHg 21%
    14:00 +24°C° 0 mm 1 mps 725 mmHg 19%
    15:00 +24°C° 0 mm 1 mps 725 mmHg 19%
    16:00 +24°C° 0 mm 2 mps 726 mmHg 19%
    17:00 +24°C° 0 mm 3 mps 726 mmHg 19%
    18:00 +21°C° 0 mm 4 mps 727 mmHg 26%
    19:00 +19°C° 0 mm 6 mps 728 mmHg 34%
    20:00 +16°C° 0 mm 8 mps 728 mmHg 41%
    21:00 +15°C° 0.1 mm 7 mps 729 mmHg 43%
    22:00 +15°C° 0.1 mm 6 mps 729 mmHg 45%
    23:00 +14°C° 0.1 mm 4 mps 730 mmHg 47%

    Tomorrow, 24 March, Sunday

    Time Temperature Precipitation Wind Pressure Humidity
    00:00 +13°C° 0.1 mm 4 mps 730 mmHg 50%
    01:00 +13°C° 0.1 mm 3 mps 730 mmHg 52%
    02:00 +13°C° 0.1 mm 2 mps 730 mmHg 55%
    03:00 +13°C° 0 mm 1 mps 730 mmHg 58%
    04:00 +13°C° 0 mm 1 mps 731 mmHg 61%
    05:00 +11°C° 0 mm 0 mps 731 mmHg 64%
    06:00 +13°C° 0 mm 1 mps 731 mmHg 63%
    07:00 +13°C° 0 mm 1 mps 731 mmHg 62%
    08:00 +13°C° 0 mm 1 mps 731 mmHg 61%
    09:00 +15°C° 0 mm 1 mps 730 mmHg 55%
    10:00 +16°C° 0 mm 1 mps 730 mmHg 49%
    11:00 +16°C° 0 mm 0 mps 729 mmHg 43%
    12:00 +17°C° 0 mm 0 mps 729 mmHg 40%
    13:00 +20°C° 0 mm 1 mps 729 mmHg 36%
    14:00 +21°C° 0 mm 1 mps 728 mmHg 33%
    15:00 +21°C° 0 mm 1 mps 728 mmHg 31%
    16:00 +21°C° 0 mm 1 mps 728 mmHg 30%
    17:00 +19°C° 0 mm 0 mps 728 mmHg 28%
    18:00 +19°C° 0 mm 0 mps 729 mmHg 30%
    19:00 +18°C° 0 mm 0 mps 729 mmHg 31%
    20:00 +17°C° 0 mm 0 mps 730 mmHg 33%
    21:00 +19°C° 0 mm 1 mps 730 mmHg 34%
    22:00 +17°C° 0 mm 2 mps 730 mmHg 35%
    23:00 +16°C° 0 mm 2 mps 730 mmHg 36%

    Day after tomorrow, 25 March, Monday

    Time Temperature Precipitation Wind Pressure Humidity
    00:00 +16°C° 0 mm 2 mps 730 mmHg 37%
    01:00 +15°C° 0 mm 2 mps 730 mmHg 38%
    02:00 +14°C° 0 mm 2 mps 730 mmHg 38%
    03:00 +14°C° 0 mm 2 mps 730 mmHg 38%
    04:00 +13°C° 0 mm 2 mps 730 mmHg 38%
    05:00 +13°C° 0 mm 2 mps 730 mmHg 38%
    06:00 +14°C° 0 mm 2 mps 730 mmHg 36%
    07:00 +13°C° 0 mm 3 mps 730 mmHg 34%
    08:00 +14°C° 0 mm 3 mps 730 mmHg 32%
    09:00 +17°C° 0 mm 2 mps 729 mmHg 28%
    10:00 +18°C° 0 mm 2 mps 729 mmHg 25%
    11:00 +20°C° 0 mm 2 mps 729 mmHg 21%
    12:00 +21°C° 0 mm 2 mps 728 mmHg 20%
    13:00 +23°C° 0 mm 1 mps 728 mmHg 19%
    14:00 +24°C° 0 mm 1 mps 728 mmHg 18%
    15:00 +24°C° 0 mm 1 mps 728 mmHg 18%
    16:00 +24°C° 0 mm 1 mps 728 mmHg 18%
    17:00 +24°C° 0 mm 1 mps 729 mmHg 17%
    18:00 +23°C° 0 mm 1 mps 729 mmHg 20%
    19:00 +21°C° 0 mm 2 mps 730 mmHg 22%
    20:00 +20°C° 0 mm 2 mps 731 mmHg 25%
    21:00 +19°C° 0 mm 3 mps 731 mmHg 28%
    22:00 +18°C° 0 mm 3 mps 731 mmHg 31%
    23:00 +17°C° 0 mm 4 mps 731 mmHg 34%

    26 March, Tuesday

    Time Temperature Precipitation Wind Pressure Humidity
    00:00 +15°C° 0 mm 4 mps 731 mmHg 35%
    01:00 +15°C° 0 mm 4 mps 731 mmHg 35%
    02:00 +14°C° 0 mm 4 mps 731 mmHg 35%
    03:00 +14°C° 0 mm 4 mps 730 mmHg 35%
    04:00 +14°C° 0 mm 3 mps 730 mmHg 35%
    05:00 +13°C° 0 mm 3 mps 730 mmHg 35%
    06:00 +14°C° 0 mm 3 mps 730 mmHg 33%
    07:00 +15°C° 0 mm 4 mps 730 mmHg 31%
    08:00 +15°C° 0 mm 4 mps 730 mmHg 29%
    09:00 +19°C° 0 mm 4 mps 730 mmHg 25%
    10:00 +21°C° 0 mm 4 mps 729 mmHg 20%
    11:00 +23°C° 0 mm 4 mps 728 mmHg 15%
    12:00 +25°C° 0 mm 4 mps 728 mmHg 13%
    13:00 +27°C° 0 mm 4 mps 727 mmHg 11%
    14:00 +28°C° 0 mm 4 mps 727 mmHg 9%
    15:00 +28°C° 0 mm 3 mps 726 mmHg 10%
    16:00 +28°C° 0 mm 3 mps 726 mmHg 10%
    17:00 +28°C° 0 mm 2 mps 726 mmHg 11%
    18:00 +26°C° 0 mm 3 mps 726 mmHg 14%
    19:00 +24°C° 0 mm 3 mps 727 mmHg 18%
    20:00 +22°C° 0 mm 3 mps 727 mmHg 21%
    21:00 +21°C° 0 mm 3 mps 727 mmHg 22%
    22:00 +20°C° 0 mm 2 mps 727 mmHg 23%
    23:00 +20°C° 0 mm 2 mps 727 mmHg 23%

    27 March, Wednesday

    Time Temperature Precipitation Wind Pressure Humidity
    00:00 +19°C° 0 mm 2 mps 726 mmHg 24%
    01:00 +19°C° 0 mm 2 mps 726 mmHg 24%
    02:00 +18°C° 0 mm 2 mps 726 mmHg 24%
    03:00 +18°C° 0 mm 2 mps 726 mmHg 25%
    04:00 +19°C° 0 mm 1 mps 726 mmHg 26%
    05:00 +18°C° 0 mm 1 mps 727 mmHg 26%
    06:00 +19°C° 0 mm 1 mps 727 mmHg 27%
    07:00 +19°C° 0 mm 1 mps 727 mmHg 27%
    08:00 +19°C° 0 mm 1 mps 727 mmHg 28%
    09:00 +21°C° 0 mm 1 mps 726 mmHg 25%
    10:00 +22°C° 0 mm 1 mps 726 mmHg 22%
    11:00 +23°C° 0 mm 1 mps 725 mmHg 19%
    12:00 +24°C° 0 mm 2 mps 725 mmHg 18%
    13:00 +24°C° 0 mm 2 mps 725 mmHg 18%
    14:00 +25°C° 0 mm 2 mps 725 mmHg 17%
    15:00 +24°C° 0 mm 2 mps 725 mmHg 19%
    16:00 +24°C° 0 mm 1 mps 725 mmHg 21%
    17:00 +23°C° 0 mm 1 mps 726 mmHg 23%
    18:00 +22°C° 0 mm 1 mps 726 mmHg 24%
    19:00 +21°C° 0 mm 1 mps 726 mmHg 25%
    20:00 +20°C° 0 mm 1 mps 726 mmHg 26%
    21:00 +20°C° 0 mm 1 mps 726 mmHg 29%
    22:00 +18°C° 0 mm 2 mps 726 mmHg 32%
    23:00 +18°C° 0 mm 2 mps 726 mmHg 35%

    28 March, Thursday

    Time Temperature Precipitation Wind Pressure Humidity
    00:00 +17°C° 0 mm 2 mps 725 mmHg 37%
    01:00 +17°C° 0 mm 2 mps 725 mmHg 39%
    02:00 +17°C° 0 mm 2 mps 725 mmHg 41%
    03:00 +16°C° 0 mm 1 mps 724 mmHg 41%
    04:00 +16°C° 0 mm 1 mps 724 mmHg 42%
    05:00 +16°C° 0 mm 1 mps 724 mmHg 42%
    06:00 +18°C° 0 mm 1 mps 724 mmHg 41%
    07:00 +17°C° 0 mm 2 mps 724 mmHg 39%
    08:00 +18°C° 0 mm 2 mps 724 mmHg 38%
    09:00 +18°C° 0.1 mm 3 mps 725 mmHg 44%
    10:00 +17°C° 0.1 mm 5 mps 726 mmHg 50%
    11:00 +16°C° 0.1 mm 6 mps 726 mmHg 56%
    12:00 +17°C° 0.1 mm 5 mps 726 mmHg 55%
    13:00 +18°C° 0.1 mm 4 mps 727 mmHg 54%
    14:00 +19°C° 0.1 mm 3 mps 727 mmHg 53%
    15:00 +19°C° 0 mm 4 mps 727 mmHg 50%
    16:00 +20°C° 0 mm 4 mps 727 mmHg 47%
    17:00 +20°C° 0 mm 4 mps 727 mmHg 44%
    18:00 +20°C° 0 mm 4 mps 727 mmHg 45%
    19:00 +19°C° 0 mm 4 mps 727 mmHg 46%
    20:00 +19°C° 0 mm 3 mps 727 mmHg 47%
    21:00 +18°C° 0 mm 3 mps 727 mmHg 48%
    22:00 +17°C° 0 mm 3 mps 727 mmHg 49%
    23:00 +17°C° 0 mm 2 mps 726 mmHg 50%
    Show more